User: anonymous   Login
Location: Santa Barbara
(34.4500°N, 119.7700°W)
Time: 00:53:24
(UTC-08:00)
Language:

Cosmos 1892 Rocket - Orbit

View from above orbital plane
View from above orbital plane
View from above satellite
View from above satellite

Ground track
Ground track

The orbit data is extracted from the following two-line orbital elements,

1 18422U 87088B   17057.75852333  .00000116  00000-0  11300-4 0  9991
2 18422  82.5101 280.3488 0021157  83.4812 322.6379 14.82911542585457
Epoch (UTC): 26 February 2017 18:12:16
Eccentricity: 0.0021157
inclination: 82.5101°
perigee height: 605 km
apogee height: 635 km
right ascension of ascending node: 280.3488°
argument of perigee: 83.4812°
revolutions per day: 14.82911542
mean anomaly at epoch: 322.6379°
orbit number at epoch: 58545

The dashed part of the orbit path shows where the satellite is in the earth's shadow,  

DLR